Dewpoint
72 71 70 70 59 48 43 47 48 49 48 51 51 51 53 57 52 51 64 66 67 69 70 70 72 72 72 72 71 71 72 72 72 72 72 72 73 72 72 72 71 71 72 71 71 73 71 71 70
71 71 71 63 48 39 46 48 49 49 51 52 53 53 52 55 61 63 64 66 66 67 68 69 72 72 71 72 72 72 71 71 72 71 71 72 72 72 71 72 71 71 71 72 72 72 72 70 71
72 72 66 57 43 43 46 50 51 52 53 52 53 54 53 57 61 63 65 66 65 65 65 70 72 72 71 71 71 72 71 71 71 71 71 72 72 72 72 72 72 72 72 72 71 71 72 72 71
70 68 64 50 44 48 48 51 53 52 53 54 52 53 58 60 61 64 66 65 64 62 64 71 72 71 71 71 71 71 71 71 71 71 71 71 71 72 72 71 71 71 71 71 71 70 70 69 70
65 62 51 47 48 50 52 52 52 51 51 51 52 53 59 62 63 65 65 63 61 61 64 68 72 72 72 71 71 71 71 72 71 71 71 71 71 72 71 72 72 72 72 71 71 71 71 70 70
59 59 44 44 49 52 52 52 52 51 51 51 52 56 62 63 63 64 64 61 61 61 63 67 71 72 72 72 72 71 71 71 71 71 71 71 71 71 71 71 71 71 71 71 71 71 71 71 70
58 51 46 46 49 51 52 53 52 50 49 50 53 54 62 61 62 63 63 61 61 62 62 64 67 70 71 71 71 71 71 71 71 70 70 70 70 70 70 70 70 70 70 70 70 70 70 71 71
59 52 49 49 45 51 53 53 52 49 50 55 55 53 59 61 62 63 63 62 61 61 62 62 64 65 67 69 71 71 71 71 71 71 70 70 70 70 70 70 70 70 70 71 71 71 71 70 70
56 47 44 48 47 51 53 51 52 51 52 53 54 53 59 62 62 61 62 61 61 61 61 62 62 65 66 67 71 72 72 72 71 71 70 70 67 68 70 71 71 72 72 71 71 71 71 72 72
52 46 47 49 51 51 52 51 51 52 52 53 54 57 61 62 61 60 60 59 60 61 61 63 63 64 66 66 69 70 68 67 67 67 69 67 67 67 68 70 72 72 72 72 72 71 72 71 65
50 49 52 52 54 52 52 52 52 51 50 50 54 57 59 60 60 59 59 59 59 61 61 63 64 65 66 65 68 67 68 66 67 69 69 67 67 68 68 69 70 72 71 68 70 69 71 66 64
48 52 52 53 55 53 52 53 51 50 51 48 51 54 57 57 56 57 57 57 57 59 60 62 63 66 65 66 66 66 65 65 64 66 69 69 68 67 68 67 67 69 71 70 70 66 67 68 70
45 49 52 52 54 53 53 53 52 51 52 51 52 55 54 54 55 55 56 57 59 59 60 61 63 67 67 68 66 65 65 65 65 67 68 68 68 69 68 69 68 70 69 70 70 67 68 70 70
45 48 51 54 52 53 52 53 52 53 53 53 54 55 55 55 54 55 56 56 58 59 60 61 64 67 67 67 67 65 65 65 66 66 67 70 68 68 68 69 69 71 71 73 72 70 69 69 71
44 45 49 51 53 53 53 52 52 53 55 54 54 55 55 56 57 56 57 57 57 58 59 61 63 64 67 67 68 67 65 65 65 66 68 70 70 69 72 70 69 69 72 71 71 71 71 68 70
39 42 32 45 50 53 51 47 52 53 54 54 53 55 56 56 57 58 58 57 57 57 59 61 61 61 64 64 66 66 66 66 66 67 67 69 71 72 71 69 68 72 72 73 71 71 70 70 69
30 20 23 37 49 50 50 47 52 54 54 54 53 52 55 56 57 58 59 58 58 59 60 61 62 62 63 66 66 66 67 67 67 67 66 67 70 71 72 69 69 73 72 71 72 71 70 70 68
19 16 20 25 44 48 48 47 51 52 53 53 54 52 54 54 55 57 59 59 58 60 61 62 63 64 65 66 68 67 67 67 67 65 65 70 71 71 72 69 71 73 69 69 70 70 69 66 65
16 16 19 37 31 44 46 47 50 52 52 52 53 52 51 52 53 55 58 59 60 60 62 63 64 65 67 67 66 66 64 65 65 65 68 71 71 72 72 69 71 71 69 70 70 69 68 67 67
12 14 20 38 41 43 45 46 49 51 51 51 53 52 49 51 51 54 56 58 59 60 62 63 64 66 68 66 66 65 64 63 63 64 68 71 72 73 72 72 71 71 68 70 70 69 66 66 67
8 9 17 27 42 44 43 45 47 50 51 51 52 52 51 47 49 52 54 56 57 59 62 63 65 66 69 66 67 68 68 67 65 65 66 70 71 71 73 73 72 71 69 68 70 69 68 67 68
8 10 20 35 32 22 38 31 45 48 50 51 51 51 50 48 49 50 52 54 55 58 60 63 66 67 68 69 66 66 63 61 62 64 67 69 69 69 73 74 73 72 68 70 70 70 70 70 65
9 15 22 28 22 21 35 32 42 46 48 50 50 51 51 49 48 49 50 52 53 55 58 61 65 67 67 68 67 67 66 62 64 65 69 70 70 68 70 74 73 71 69 70 70 70 69 68 67
11 9 16 21 18 20 23 28 29 41 43 47 50 50 51 51 48 49 50 51 52 54 57 59 64 67 68 69 70 68 65 65 64 67 67 67 66 66 69 73 73 71 69 70 69 70 70 69 68
10 8 6 10 16 20 23 27 30 37 41 44 48 50 51 52 52 48 49 50 52 53 56 59 63 67 68 68 68 68 68 68 67 68 66 65 64 66 69 73 73 72 71 70 70 69 68 68 66
11 9 6 9 12 15 26 26 32 38 41 43 46 49 51 52 52 49 49 51 53 55 56 58 61 66 66 67 68 69 69 67 67 66 65 66 66 66 70 71 73 73 71 70 71 68 65 65 64
15 11 9 3 7 10 20 27 37 43 44 43 44 48 50 51 52 51 50 51 53 54 56 58 60 65 65 66 68 69 69 68 65 66 67 67 68 68 72 72 72 73 72 71 71 67 66 65 63
11 10 4 3 8 10 21 23 26 39 44 46 44 47 50 51 52 52 52 51 52 53 54 57 59 62 64 64 66 67 68 69 68 69 69 66 66 71 71 73 73 73 73 73 72 69 67 66 62
10 12 9 7 6 5 6 19 38 41 45 47 48 49 50 52 52 52 53 53 52 53 54 55 58 60 63 64 65 67 67 67 69 68 69 70 69 70 72 73 73 73 73 73 72 70 68 66 65
28 20 14 10 19 13 9 18 44 47 49 51 51 51 52 53 54 54 53 54 54 53 55 56 57 59 63 65 66 67 67 66 66 67 67 69 70 70 72 73 74 74 73 73 72 71 68 67 66
Wind_Speed
13 12 6 4 5 2 15 13 15 14 13 6 11 2 12 8 6 7 9 14 17 16 14 16 15 16 18 19 17 18 18 15 15 14 14 13 12 13 14 15 16 14 14 14 13 14 14 16 16
11 9 5 5 0 14 13 10 10 9 12 14 10 9 5 6 7 16 18 16 18 18 18 17 16 17 15 18 16 16 16 14 15 13 13 13 12 11 13 13 14 12 12 14 12 12 12 11 12
7 6 4 4 10 15 12 11 10 13 14 7 6 6 6 6 15 21 18 23 19 18 18 19 15 18 15 17 15 14 14 14 14 13 12 12 12 11 11 12 11 9 10 12 11 11 10 9 10
6 4 6 2 15 10 13 10 12 12 5 2 9 11 10 17 12 14 23 22 19 17 16 18 16 16 15 15 15 15 14 14 13 11 10 11 10 10 10 9 9 8 9 9 9 8 9 8 9
4 3 2 11 12 12 11 12 9 6 7 7 4 11 16 9 15 26 23 22 21 19 20 19 16 15 15 14 14 14 12 13 13 10 11 9 8 9 9 7 7 7 7 7 6 6 7 7 7
4 5 9 11 11 10 9 7 7 7 8 9 14 21 9 14 21 21 21 20 18 20 19 17 14 14 13 13 13 13 12 11 11 10 10 8 7 7 7 6 5 5 4 5 4 5 4 5 6
4 3 10 12 12 9 7 6 3 8 9 11 16 14 7 17 19 20 20 19 19 18 17 18 15 13 12 11 11 11 11 10 10 9 8 6 5 4 4 4 3 2 1 2 2 2 2 2 2
3 3 6 5 8 9 9 7 8 8 13 12 14 8 15 20 19 20 18 18 17 17 18 15 17 15 14 14 11 10 9 8 8 7 6 5 4 5 5 4 6 3 3 2 2 2 4 2 2
2 6 8 6 6 11 13 13 7 9 12 5 4 13 24 24 20 20 19 18 17 15 15 14 14 14 10 9 11 10 8 7 6 8 6 8 9 7 8 6 4 4 5 4 4 4 3 3 7
3 3 5 4 5 13 11 12 13 13 11 12 16 20 24 23 21 21 20 19 18 17 16 14 12 13 12 8 11 7 9 10 7 5 4 5 2 2 3 0 4 6 7 6 7 7 5 9 7
2 4 4 6 6 8 12 13 10 12 10 16 25 25 24 22 20 19 19 19 19 18 15 15 13 10 11 8 9 10 9 6 7 4 4 3 3 5 5 4 6 6 8 6 6 9 7 11 2
6 8 4 8 4 6 11 13 9 8 13 19 23 24 23 21 20 19 18 17 17 17 15 15 14 11 10 8 8 6 5 5 5 6 5 3 7 4 2 3 3 3 2 4 5 4 2 4 4
0 7 6 5 6 8 11 9 9 9 16 22 22 21 20 18 16 15 15 15 15 16 15 15 13 11 9 8 7 6 5 6 6 6 6 6 5 2 4 3 7 8 5 3 4 4 3 1 2
2 3 9 9 9 9 12 11 11 12 17 23 22 21 20 17 16 15 14 15 15 15 16 14 13 12 11 10 6 5 6 5 4 4 5 7 6 4 4 5 6 7 3 1 2 4 3 4 2
1 4 7 11 12 9 12 10 10 18 18 23 24 21 20 19 17 17 16 15 16 15 15 15 14 14 12 10 9 7 6 6 5 5 5 7 7 6 7 6 7 4 2 1 3 3 5 9 5
3 7 3 9 12 8 11 9 11 18 20 20 24 23 21 20 19 16 16 16 16 14 14 14 13 14 14 11 9 8 7 6 5 6 6 8 9 8 7 6 6 5 6 3 3 3 5 5 8
3 11 8 7 10 7 12 9 15 18 18 21 24 24 22 21 19 18 17 15 16 14 15 15 14 13 13 11 9 9 6 7 6 6 6 4 7 9 9 5 4 4 5 4 3 5 6 7 9
13 14 9 5 9 9 10 7 13 18 19 21 22 24 24 23 22 21 18 16 15 15 15 15 15 13 12 10 9 8 8 7 7 7 6 4 6 6 6 4 4 5 5 2 1 5 6 5 6
12 11 6 7 3 8 9 6 10 17 19 20 21 22 24 24 23 22 21 18 16 16 16 17 16 14 13 13 12 11 10 9 7 7 5 6 4 3 5 4 2 3 3 3 2 4 5 5 3
8 8 7 4 3 7 4 9 13 16 19 21 23 22 23 24 25 23 21 20 20 19 18 18 17 16 16 13 11 9 8 8 7 6 4 5 4 3 4 2 0 1 3 3 3 2 3 3 4
3 9 8 8 3 4 5 8 15 17 16 17 19 21 22 25 25 25 22 21 20 20 20 21 20 18 16 14 11 9 8 7 8 9 8 6 4 2 2 3 1 2 2 4 2 3 3 2 2
7 7 5 1 8 10 3 3 11 16 20 21 22 22 22 23 24 24 24 21 21 20 19 19 20 20 18 17 14 14 11 10 9 8 5 2 4 3 4 4 3 3 1 2 2 2 4 6 1
8 7 6 6 11 9 6 7 8 12 17 23 24 25 24 23 25 25 25 23 20 20 18 18 19 19 18 19 17 14 14 10 8 8 3 4 5 5 5 5 4 4 5 2 1 1 3 2 7
11 11 10 8 9 7 6 9 14 7 10 19 25 26 25 25 25 26 23 22 21 18 17 16 18 19 19 19 19 17 13 12 8 7 5 5 6 7 6 5 5 5 3 4 3 1 2 4 3
9 14 8 4 7 6 3 7 11 5 2 7 22 26 26 25 23 25 25 23 20 18 17 16 18 19 21 21 19 19 17 14 12 9 9 7 7 5 7 8 7 6 5 3 3 3 2 3 3
6 11 11 4 2 3 2 2 10 9 3 4 11 22 26 26 26 25 26 22 19 19 19 18 19 18 21 22 21 19 16 14 14 12 12 10 7 4 4 9 7 7 7 6 5 5 5 3 4
4 12 6 8 5 9 3 8 14 14 14 9 9 16 23 27 27 28 26 24 22 21 20 20 19 19 20 23 19 19 18 17 14 13 12 13 9 6 7 8 9 8 8 7 6 5 5 3 2
6 3 7 7 2 5 7 3 11 11 14 13 6 11 16 20 24 26 26 25 23 22 22 21 20 20 20 20 20 20 20 19 17 15 15 13 11 9 8 9 10 10 10 9 8 4 5 4 4
7 10 1 3 5 3 5 8 9 11 9 13 9 2 12 17 21 24 24 23 22 21 20 20 20 19 19 19 20 21 21 20 18 18 17 16 15 13 13 11 11 12 12 11 10 6 5 6 3
2 5 8 10 9 2 6 4 11 15 11 11 11 7 2 10 16 18 20 20 22 21 19 17 18 19 20 20 20 21 20 18 19 19 19 17 17 16 15 14 13 13 13 13 12 11 9 9 8
Wind_Direction
170 177 178 196 223 135 76 80 99 107 120 87 134 107 92 61 125 152 158 164 143 143 137 136 125 115 113 118 118 114 111 113 107 104 99 98 95 105 103 105 101 99 91 90 91 87 92 84 77
166 168 220 267 77 85 75 96 81 74 107 123 107 122 95 81 88 123 140 156 154 140 140 133 124 114 116 115 117 115 116 115 108 110 102 99 100 104 110 106 105 105 102 95 93 91 93 90 77
184 236 267 279 52 63 92 90 97 108 130 129 101 75 63 86 131 138 137 151 153 144 140 122 128 119 129 116 119 119 122 119 116 117 112 111 108 109 109 109 110 105 103 97 93 91 90 85 85
188 221 243 83 91 70 80 96 120 129 141 107 112 89 81 115 119 128 140 148 143 137 133 131 129 131 129 126 125 125 128 123 125 123 117 118 117 112 100 105 105 101 97 97 99 96 94 86 80
213 250 116 99 86 79 85 109 113 115 114 125 141 108 114 101 123 132 144 151 142 143 132 142 140 143 136 137 137 131 133 129 124 126 125 120 119 112 113 114 110 112 108 103 102 101 95 89 79
227 256 136 104 105 96 104 116 73 85 102 110 122 124 86 123 137 141 147 148 141 139 145 138 142 136 134 139 139 138 134 126 120 122 120 118 125 119 117 120 109 111 112 102 98 96 98 92 80
282 260 81 112 116 105 118 120 77 102 119 117 137 120 110 148 137 143 148 145 145 145 145 155 152 142 144 142 148 144 141 135 131 131 127 135 134 129 133 134 129 143 141 140 148 126 124 122 98
265 282 143 118 130 107 129 117 106 107 102 121 143 149 149 147 146 144 146 145 154 155 156 163 153 165 167 160 158 156 151 147 147 153 150 170 173 192 183 193 186 216 238 237 229 212 191 172 186
220 212 131 126 150 135 141 128 115 115 133 134 128 140 136 147 148 149 150 155 159 164 161 163 163 161 162 163 157 163 159 164 174 180 182 208 232 172 167 106 126 235 245 228 238 225 231 220 215
270 336 62 80 73 149 147 139 131 142 109 115 121 115 138 150 159 157 161 164 165 169 167 164 168 171 163 177 156 185 163 188 197 198 176 223 194 147 305 281 206 239 244 242 232 237 229 231 231
103 93 88 104 94 155 148 141 150 153 118 141 140 142 150 159 168 166 168 170 171 172 169 170 177 184 169 181 172 194 183 181 181 205 224 210 246 187 212 194 198 205 222 271 223 205 205 291 304
121 122 163 148 135 164 153 150 138 152 124 139 141 149 155 166 173 171 172 171 169 172 177 176 174 185 187 181 193 186 186 187 203 175 199 220 224 193 261 284 302 235 259 214 302 244 259 222 329
15 161 172 142 168 156 148 162 145 130 137 143 147 154 159 166 168 171 174 172 176 177 179 183 179 185 191 197 189 200 201 194 188 191 182 237 246 273 258 340 299 323 281 287 222 297 300 341 268
11 197 178 167 170 167 174 157 162 144 147 150 158 166 162 166 172 168 183 180 184 183 180 179 185 183 192 198 197 197 199 197 202 195 205 219 256 257 305 274 255 244 286 66 235 206 326 317 227
323 197 190 188 177 171 172 166 194 157 159 161 167 169 166 168 172 179 181 186 189 187 179 183 189 186 193 197 194 206 194 190 202 214 217 235 252 235 283 264 290 342 338 280 242 161 168 232 197
277 217 86 143 180 164 206 127 168 164 171 173 172 174 175 176 180 182 180 185 181 186 182 189 190 190 186 193 188 208 202 219 217 233 241 231 245 256 263 275 305 350 307 235 205 171 197 215 241
167 6 23 126 190 166 213 131 165 174 180 177 179 176 179 181 186 185 188 190 176 184 182 190 192 195 186 187 198 205 213 223 237 244 249 252 261 244 245 271 328 315 319 314 190 204 189 201 208
336 339 347 16 158 194 194 142 154 181 184 179 182 182 186 185 188 187 193 191 189 182 185 191 193 194 191 184 203 214 221 226 232 241 250 292 257 237 226 251 316 308 339 5 208 176 179 182 163
319 322 337 43 125 189 202 187 172 175 188 181 186 187 190 192 186 185 189 192 195 193 193 195 196 191 193 199 202 209 218 213 226 233 250 272 270 225 218 263 287 310 349 37 177 156 171 175 181
318 282 56 112 118 204 163 221 190 189 196 190 188 192 193 193 189 190 189 194 198 198 200 200 204 197 200 201 211 219 224 224 234 241 263 273 262 238 239 265 330 25 105 132 155 209 158 186 184
140 9 10 3 131 197 286 215 194 194 203 200 200 196 198 196 194 188 194 197 201 202 203 205 204 201 202 213 204 207 229 245 235 237 237 236 252 253 225 184 196 163 262 143 179 195 252 279 178
286 10 342 294 288 8 298 26 178 191 202 203 201 204 199 198 200 194 194 202 205 206 203 206 206 206 201 202 210 215 223 225 220 226 220 198 219 205 192 181 181 204 173 128 183 214 314 299 161
337 342 314 291 284 283 136 255 105 183 206 209 207 201 202 198 198 199 194 198 206 203 204 202 204 207 207 201 215 211 225 218 223 218 189 226 204 210 199 184 184 184 223 133 329 292 300 293 316
297 278 244 240 268 241 45 293 124 157 220 209 206 206 198 199 202 199 200 195 203 203 202 199 198 204 204 202 205 213 214 226 227 215 220 229 206 188 200 192 193 192 187 192 222 273 238 312 315
237 254 280 258 199 40 42 266 57 62 170 200 200 198 199 197 194 202 199 195 199 203 201 201 195 200 202 201 204 211 212 210 221 231 224 226 216 204 180 200 199 190 198 197 219 211 282 234 284
235 313 299 274 294 63 150 19 68 18 3 215 186 192 192 197 193 203 198 195 197 205 205 202 197 200 201 204 205 207 211 214 218 219 241 229 242 227 184 200 209 198 190 198 197 209 229 190 216
191 245 343 289 220 263 69 111 91 47 47 79 163 179 188 195 195 202 201 203 203 206 210 208 204 202 203 205 204 206 207 214 215 223 217 230 236 238 211 208 208 203 198 199 191 225 211 205 224
276 24 220 202 235 281 129 209 58 17 22 31 117 173 185 198 200 200 207 205 207 208 212 210 208 207 205 208 206 209 210 210 214 215 220 229 233 224 219 209 208 204 201 200 205 193 176 203 219
165 199 209 356 310 304 259 100 38 21 11 11 17 168 185 192 199 204 203 209 208 214 212 211 210 208 204 204 208 212 211 211 211 216 220 221 223 221 219 216 212 210 203 200 203 218 163 199 214
339 48 274 277 150 65 314 43 69 33 5 356 6 13 306 202 196 203 205 206 213 207 212 214 210 207 207 206 209 213 214 211 214 219 221 219 219 219 218 217 215 215 209 202 203 203 194 202 211